Retour au catalogue

CZ-4 DEB

ActifSSO
NORAD 31139·DEBRIS·🇨🇳 China

Lancé Oct 21, 2003 depuis Taiyuan Satellite Launch Center

Loading…

Prochains Passages (prochaines 24 heures)

TLE

FraisSource: Space-Track

Époque: Sep 14, 2026, 05:55 UTC

1 31139U 03049E   26257.24707948  .00002532  00000-0  43259-3 0  9994
2 31139  98.4820 269.8187 0065739 335.6523  24.1579 14.68465569 25142

Suivez CZ-4 DEB en temps réel avec AllMySat

Download on the App Store